Regional Weather Roundup
Issued by NWS

Home | Current Version | Previous Version | Graphics & Text | Print | Product List | Glossary On
Versions: 1 2 3 4 5 6 7 8 9 10 11 12 13 14 15 16 17 18 19 20 21 22 23 24 25 26 27 28 29 30 31 32 33 34 35 36 37 38 39 40 41 42 43 44 45 46 47 48 49 50
000
ASUS43 KFSD 211502
RWRSD

WEATHER ROUNDUP FOR SOUTH DAKOTA
NATIONAL WEATHER SERVICE SIOUX FALLS SD
900 AM CST TUE FEB 21 2017

NOTE: "FAIR" INDICATES FEW OR NO CLOUDS BELOW 12,000 FEET WITH NO
SIGNIFICANT WEATHER AND/OR OBSTRUCTIONS TO VISIBILITY.


SDZ001>005-009-010-012>017-211600-
NORTHWEST AND NORTH CENTRAL SOUTH DAKOTA

CITY           SKY/WX    TMP DP  RH WIND       PRES   REMARKS
BUFFALO          N/A     48  34  58 W7        29.66S
FAITH            N/A     44  35  70 N3        29.73F
MOBRIDGE       CLOUDY    41  32  70 N6        29.69R
$$

SDZ012>016-024>037-041>051-057-063-072>074-211600-
SOUTHWEST AND SOUTH CENTRAL SOUTH DAKOTA

CITY           SKY/WX    TMP DP  RH WIND       PRES   REMARKS
RAPID CTY ARPT SUNNY     56  34  43 N5        29.75S
PIERRE         SUNNY     48  33  56 W8        29.74S
CUSTER         SUNNY     47  29  49 W22G30    29.85S
ELLSWORTH AFB  SUNNY     52  33  48 N3        29.75R
PHILIP         MOSUNNY   54  34  46 W8        29.75S
PINE RIDGE     SUNNY     44  31  60 NE5       29.82F
SPEARFISH      FAIR      54  32  43 SW25G33   29.75R
WINNER         FAIR      52  30  43 S8        29.78S
$$

SDZ004>011-016>023-039-040-211600-
NORTHEAST SOUTH DAKOTA

CITY           SKY/WX    TMP DP  RH WIND       PRES   REMARKS
ABERDEEN       MOSUNNY   38  31  76 S5        29.72R
WATERTOWN      SUNNY     39  33  79 S10       29.75S
BROOKINGS      SUNNY     42  34  73 S13       29.79S
SISSETON         N/A     45  35  68 VRB3      29.70S
$$

SDZ017-020-022-023-036>040-048>070-211600-
SOUTHEAST SOUTH DAKOTA

CITY           SKY/WX    TMP DP  RH WIND       PRES   REMARKS
SIOUX FALLS    MOSUNNY   47  36  65 SW16G25   29.83S
HURON          SUNNY     42  32  67 S6        29.76S
CHAMBERLAIN    SUNNY     50  34  53 CALM      29.77S
MITCHELL       SUNNY     47  31  53 SW13      29.79F
YANKTON        SUNNY     46  32  57 S17       29.84F
$$

ABBREVIATIONS USED IN REMARKS
   TC - TEMPERATURE IN CELSIUS
  WCI - WIND CHILL INDEX
   HX - HEAT INDEX
  VSB - VISIBILITY





USA.gov is the U.S. government's official web portal to all federal, state and local government web resources and services.